Location: Betzi
(47.2343°N, 9.5260°E)
Time: 16:38:58
(UTC+00:00)

Cosmos 371 Rocket - Pass Details

Date: 27 May 2022
Orbit: 684 x 697 km, 74.0° (Epoch: 06 July)

Event Time Altitude Azimuth Distance (km) Brightness Sun altitude
Exits shadow 00:06:46 49° 200° (SSW) 894 3.4 -20.7°
Maximum altitude 00:08:06 89° 112° (ESE) 701 3.2 -20.6°
Drops below altitude 10° 00:12:58 10° 23° (NNE) 2,157 7.0 -20.4°
Sets 00:15:17 0° 23° (NNE) 3,076 8.2 -20.3°
